CAPE
3 2 2 3 2 3 3 1 0 2 2 2 2 2 1 4 0 0 0 0 1121 1869 783 2 5 14 128 182 122 0 0 0 21 16 77 148 234 365 240 381 487 539 451 623 1041
2 2 2 3 3 3 0 0 2 1 1 2 2 2 0 4 0 0 0 1185 2258 1732 198 1 6 41 0 49 220 153 7 60 14 0 125 390 256 287 198 223 240 471 433 920 1063
2 3 3 1 2 0 0 2 0 1 1 1 2 2 0 2 0 0 0 2135 2258 1095 43 23 11 168 370 30 59 180 57 459 124 145 144 382 446 448 146 103 177 343 633 854 865
3 3 0 1 1 1 2 1 1 1 1 1 1 1 2 0 0 0 1282 2171 1921 165 190 14 15 419 231 14 43 27 124 177 304 173 372 248 12 178 177 197 90 165 608 701 696
3 1 1 2 2 0 1 2 1 1 1 1 1 1 0 0 0 766 1910 2210 998 327 223 126 246 261 286 131 74 25 53 64 249 2 80 298 300 204 283 92 20 12 367 425 500
1 1 1 1 3 3 3 2 2 1 1 1 0 1 0 0 0 1247 1360 1753 938 774 0 0 0 73 0 132 114 113 208 312 358 304 243 170 188 210 180 0 4 16 191 250 282
1 2 1 2 3 3 4 3 2 1 1 0 0 0 0 0 0 77 608 793 43 209 0 0 0 4 0 5 133 50 71 274 58 491 188 86 55 71 0 0 6 0 4 110 107
1 1 1 2 3 5 1 1 2 1 0 0 0 0 0 0 0 0 0 0 0 0 0 0 0 0 0 0 0 51 91 30 220 307 323 45 86 33 0 0 0 0 0 0 0
0 1 1 2 4 0 2 2 0 0 0 0 0 0 0 0 0 0 0 0 0 0 0 0 0 0 0 0 0 0 1 80 347 446 210 17 2 17 0 2 0 0 0 0 0
1 0 1 3 0 0 1 0 0 0 0 0 0 0 0 0 0 0 0 0 0 0 0 0 0 0 0 0 0 0 0 4 65 324 208 125 49 59 21 0 0 0 0 0 0
2 1 3 0 0 0 0 0 0 0 0 0 0 0 0 0 0 0 0 0 0 0 0 0 0 0 0 0 0 0 0 0 0 322 213 150 67 166 23 9 0 0 0 0 0
3 5 0 0 1 1 0 0 0 0 0 0 0 0 0 0 0 0 0 0 0 0 0 0 0 0 0 0 0 0 0 0 10 443 284 201 100 37 85 27 1 0 0 0 0
4 0 0 0 0 0 0 0 0 0 0 0 0 0 0 0 0 0 0 0 0 0 0 0 0 0 0 0 0 0 0 0 26 469 198 148 41 48 64 138 25 0 0 0 0
5 0 1 2 0 0 0 0 0 0 0 0 0 0 0 0 0 0 0 0 0 0 0 0 0 0 0 0 0 0 0 0 579 518 275 145 20 0 105 171 238 70 0 0 0
1 1 0 0 0 0 0 0 0 0 0 0 0 0 0 0 0 0 0 0 0 0 0 0 0 0 0 0 0 0 0 0 126 4 0 56 41 0 109 162 248 305 77 0 0
4 1 0 0 0 0 0 0 0 0 0 0 0 0 0 0 0 0 0 0 0 0 0 0 0 0 0 0 0 0 0 0 0 0 0 0 0 0 43 327 187 300 325 11 24
0 0 2 0 0 0 0 0 0 0 0 0 0 0 0 0 0 0 0 0 0 0 0 0 0 0 0 0 0 0 0 0 0 0 0 0 0 0 0 0 174 387 402 91 7
0 0 0 0 0 0 0 0 0 0 0 0 0 0 0 0 0 0 0 0 0 0 0 0 0 0 0 0 0 0 0 0 0 0 0 0 0 0 18 4 2 329 438 217 14
0 0 0 0 0 0 0 0 0 0 0 0 0 0 0 0 0 0 0 0 0 0 0 0 0 0 0 0 0 0 0 0 0 0 0 0 0 19 32 237 141 465 275 132 32
0 0 0 0 0 0 0 0 0 0 0 0 0 0 0 0 0 0 0 0 0 0 0 0 0 0 0 0 0 0 0 0 0 0 0 0 0 47 145 254 302 514 388 169 106
0 0 0 0 0 0 0 0 0 0 0 0 0 0 0 0 0 0 0 0 0 0 0 0 0 0 0 0 0 0 0 0 0 0 0 0 0 0 78 23 182 182 470 279 120
0 0 0 0 0 0 0 0 0 0 0 0 0 0 0 0 0 0 0 0 0 0 0 0 0 0 0 0 0 0 0 0 0 0 0 0 0 0 0 0 3 116 75 402 232
0 0 0 0 0 0 0 0 0 0 0 0 0 0 0 0 0 0 0 0 0 0 0 0 0 0 0 0 0 0 0 0 0 0 0 0 0 0 0 37 23 36 211 181 370
0 0 0 0 0 0 0 0 0 0 0 0 0 0 0 0 0 0 0 0 0 0 417 0 0 0 0 0 0 0 0 1 0 0 0 0 0 0 0 53 48 299 404 163 403
0 0 0 0 0 0 0 0 0 0 0 0 0 0 0 0 0 0 0 0 0 1 0 0 0 0 0 0 0 0 266 373 351 263 0 0 0 0 0 39 222 417 447 324 357
0 0 0 0 0 0 0 0 0 0 0 0 0 0 0 0 0 0 0 0 0 0 0 0 0 0 0 0 0 0 57 369 377 309 309 22 43 35 281 455 735 1069 1317 1445 1622
0 0 0 0 0 0 0 0 0 0 0 0 0 0 0 0 0 0 0 0 0 0 0 0 0 0 0 0 0 0 38 338 227 288 325 369 338 138 221 0 0 0 49 1383 2399
CIN
-0 -0 -0 -0 -0 -0 -0 -0 -0 -0 -0 -0 -0 -0 -0 -0 -0 -0 -0 -0 -468 -407 -478 -147 -382 -463 -390 -360 -359 -0 -0 -72 -161 -159 -107 -110 -79 -120 -122 -132 -113 -98 -108 -128 -90
-0 -0 -0 -0 -0 -0 -0 -0 -0 -0 -0 -0 -0 -0 -0 -0 -0 -0 -0 -495 -385 -444 -538 -122 -310 -407 -0 -401 -308 -292 -149 -226 -133 -7 -148 -81 -71 -112 -142 -140 -144 -134 -140 -125 -113
-0 -0 -0 -0 -0 -0 -0 -0 -0 -0 -0 -0 -0 -0 -0 -0 -0 -0 -0 -395 -357 -487 -528 -408 -313 -382 -287 -461 -343 -343 -301 -210 -167 -148 -166 -59 -69 -71 -136 -159 -169 -216 -204 -160 -137
-0 -0 -0 -0 -0 -0 -0 -0 -0 -0 -0 -0 -0 -0 -0 -0 -0 -0 -476 -370 -351 -567 -488 -617 -570 -277 -315 -325 -338 -188 -229 -247 -115 -164 -139 -107 -186 -141 -156 -110 -229 -213 -250 -231 -175
-0 -0 -0 -0 -0 -0 -0 -0 -0 -0 -0 -0 -0 -0 -0 -0 -0 -539 -362 -297 -422 -479 -472 -488 -409 -363 -188 -282 -267 -347 -201 -208 -178 -20 -295 -124 -93 -78 -125 -141 -275 -330 -219 -248 -204
-0 -0 -0 -0 -0 -0 -0 -0 -0 -0 -0 -0 -0 -0 -0 -0 -0 -423 -379 -299 -425 -426 -0 -0 -0 -404 -0 -215 -223 -239 -186 -180 -125 -202 -135 -107 -113 -110 -111 -0 -187 -122 -248 -237 -220
-0 -0 -0 -0 -0 -0 -0 -0 -0 -0 -0 -0 -0 -0 -0 -0 -0 -804 -511 -450 -402 -511 -0 -0 -0 -49 -0 -78 -221 -131 -163 -158 -199 -91 -141 -194 -146 -214 -0 -0 -244 -0 -25 -204 -199
-0 -0 -0 -0 -0 -0 -0 -0 -0 -0 -0 -0 -0 -0 -0 -0 -0 -0 -0 -0 -0 -0 -0 -0 -0 -0 -0 -0 -0 -143 -149 -206 -185 -135 -156 -233 -203 -264 -0 -0 -0 -0 -0 -0 -0
-0 -0 -0 -0 -0 -0 -0 -0 -0 -0 -0 -0 -0 -0 -0 -0 -0 -0 -0 -0 -0 -0 -0 -0 -0 -0 -0 -0 -0 -0 -45 -128 -170 -216 -246 -195 -276 -315 -0 -138 -0 -0 -0 -0 -0
-0 -0 -0 -0 -0 -0 -0 -0 -0 -0 -0 -0 -0 -0 -0 -0 -0 -0 -0 -0 -0 -0 -0 -0 -0 -0 -0 -0 -0 -0 -0 -11 -119 -249 -259 -267 -279 -285 -234 -0 -0 -0 -0 -0 -0
-0 -0 -0 -0 -0 -0 -0 -0 -0 -0 -0 -0 -0 -0 -0 -0 -0 -0 -0 -0 -0 -0 -0 -0 -0 -0 -0 -0 -0 -0 -0 -0 -0 -226 -230 -245 -237 -360 -355 -327 -0 -0 -0 -0 -0
-0 -0 -0 -0 -0 -0 -0 -0 -0 -0 -0 -0 -0 -0 -0 -0 -0 -0 -0 -0 -0 -0 -0 -0 -0 -0 -0 -0 -0 -0 -0 -0 -26 -221 -185 -221 -193 -291 -378 -367 -73 -0 -0 -0 -0
-0 -0 -0 -0 -0 -0 -0 -0 -0 -0 -0 -0 -0 -0 -0 -0 -0 -0 -0 -0 -0 -0 -0 -0 -0 -0 -0 -0 -0 -0 -0 -0 -39 -220 -236 -254 -220 -294 -377 -317 -347 -0 -0 -0 -0
-0 -0 -0 -0 -0 -0 -0 -0 -0 -0 -0 -0 -0 -0 -0 -0 -0 -0 -0 -0 -0 -0 -0 -0 -0 -0 -0 -0 -0 -0 -0 -0 -197 -142 -100 -227 -124 -0 -342 -343 -304 -350 -0 -0 -0
-0 -0 -0 -0 -0 -0 -0 -0 -0 -0 -0 -0 -0 -0 -0 -0 -0 -0 -0 -0 -0 -0 -0 -0 -0 -0 -0 -0 -0 -0 -0 -0 -248 -17 -0 -248 -197 -0 -393 -320 -341 -307 -344 -0 -0
-0 -0 -1 -0 -0 -0 -0 -0 -0 -0 -0 -0 -0 -0 -0 -0 -0 -0 -0 -0 -0 -0 -0 -0 -0 -0 -0 -0 -0 -0 -0 -0 -0 -0 -0 -0 -0 -0 -200 -207 -281 -315 -288 -366 -459
-0 -1 -0 -0 -0 -0 -0 -0 -0 -0 -0 -0 -0 -0 -0 -0 -0 -0 -0 -0 -0 -0 -0 -0 -0 -0 -0 -0 -0 -0 -0 -0 -0 -0 -0 -0 -0 -0 -0 -0 -234 -252 -305 -338 -336
-0 -0 -0 -0 -0 -0 -0 -0 -0 -0 -0 -0 -0 -0 -0 -0 -0 -0 -0 -0 -0 -0 -0 -0 -0 -0 -0 -0 -0 -0 -0 -0 -0 -0 -0 -0 -0 -0 -426 -216 -36 -252 -253 -299 -396
-0 -0 -0 -0 -0 -0 -0 -0 -0 -0 -0 -0 -0 -0 -0 -0 -0 -0 -0 -0 -0 -0 -0 -0 -0 -0 -0 -0 -0 -0 -0 -0 -0 -0 -0 -0 -0 -12 -385 -265 -364 -318 -372 -364 -413
-0 -0 -0 -0 -0 -0 -0 -0 -0 -0 -0 -0 -0 -0 -0 -0 -0 -0 -0 -0 -0 -0 -0 -0 -0 -0 -0 -0 -0 -0 -0 -0 -0 -0 -0 -0 -0 -138 -118 -128 -222 -300 -360 -389 -392
-0 -0 -0 -0 -0 -0 -0 -0 -0 -0 -0 -0 -0 -0 -0 -0 -0 -0 -0 -0 -0 -0 -0 -0 -0 -0 -0 -0 -0 -0 -0 -0 -0 -0 -0 -0 -0 -0 -163 -308 -119 -298 -358 -394 -370
-0 -0 -0 -0 -0 -0 -0 -0 -0 -0 -0 -0 -0 -0 -0 -0 -0 -0 -0 -0 -0 -0 -0 -0 -0 -0 -0 -0 -0 -0 -0 -0 -0 -0 -0 -0 -0 -0 -0 -0 -572 -357 -438 -379 -417
-0 -0 -0 -0 -0 -0 -0 -0 -0 -0 -0 -0 -0 -0 -0 -0 -0 -0 -0 -0 -0 -0 -0 -0 -0 -0 -0 -0 -0 -0 -0 -0 -0 -0 -0 -0 -0 -0 -0 -461 -400 -506 -367 -492 -403
-0 -0 -0 -0 -0 -0 -0 -0 -0 -0 -0 -0 -0 -0 -0 -0 -0 -0 -0 -0 -0 -0 -447 -0 -0 -0 -0 -0 -0 -0 -17 -99 -0 -0 -0 -0 -0 -0 -0 -365 -326 -427 -306 -459 -410
-0 -0 -0 -0 -0 -0 -0 -0 -0 -0 -0 -0 -0 -0 -0 -0 -0 -0 -0 -0 -0 -98 -0 -0 -0 -0 -0 -0 -0 -0 -232 -288 -304 -402 -0 -0 -0 -0 -0 -532 -404 -398 -366 -387 -388
-0 -0 -0 -0 -0 -0 -0 -0 -0 -0 -0 -0 -0 -0 -0 -0 -0 -0 -0 -0 -0 -0 -0 -0 -0 -0 -0 -0 -0 -4 -270 -280 -391 -520 -466 -329 -243 -732 -536 -510 -420 -345 -306 -301 -305
-0 -0 -0 -0 -0 -0 -0 -0 -0 -0 -0 -0 -0 -0 -0 -0 -0 -0 -0 -0 -0 -0 -0 -0 -0 -0 -0 -0 -0 -0 -181 -251 -416 -538 -564 -434 -546 -749 -533 -0 -0 -0 -592 -359 -189
Wind_Speed
17 17 18 19 19 18 19 18 18 17 16 16 15 15 15 14 14 3 6 6 7 16 7 10 8 2 2 1 2 4 5 4 4 1 4 5 5 10 2 17 6 10 7 12 17
17 18 19 19 19 19 19 18 18 18 18 17 15 15 14 10 3 5 11 16 15 17 8 8 4 3 4 3 3 2 4 3 1 4 6 4 10 5 6 16 4 11 15 20 19
18 19 20 20 20 20 19 19 18 18 17 17 15 15 13 5 2 5 7 20 23 15 6 6 5 4 4 4 2 6 6 5 3 3 5 9 11 1 12 10 11 22 21 22 19
19 19 20 21 21 22 20 20 19 19 18 16 15 14 11 2 4 4 15 20 20 8 6 9 3 4 4 3 1 3 8 3 10 11 9 6 6 2 12 5 16 19 23 21 19
18 19 19 20 20 21 22 21 20 19 18 16 13 12 3 3 7 5 17 20 16 7 8 6 5 5 4 4 7 2 4 5 9 14 8 9 15 8 10 10 15 17 21 20 19
18 18 18 19 20 21 21 21 20 19 18 15 10 8 1 1 3 15 16 16 14 9 7 9 9 12 2 6 6 11 11 9 9 15 8 12 6 10 9 15 15 20 20 19 19
18 19 20 21 21 22 21 22 22 20 18 13 7 3 2 9 3 11 16 12 7 14 7 17 5 5 3 7 10 6 7 8 7 7 3 11 3 4 9 16 17 15 18 19 19
19 20 21 22 23 23 24 25 24 22 15 9 5 2 7 3 6 9 7 7 7 15 13 9 7 6 4 2 1 4 3 3 8 8 6 5 4 3 8 16 16 10 13 17 17
20 21 22 22 23 25 25 28 24 8 3 9 3 2 9 2 4 9 9 6 9 8 7 10 1 4 4 5 5 3 2 4 2 8 7 4 3 7 6 15 15 13 10 9 12
20 21 22 24 25 25 29 25 8 1 3 3 2 2 5 1 4 5 7 4 2 2 2 3 4 2 4 6 3 4 5 5 7 7 5 6 7 6 10 18 17 14 12 9 9
20 21 22 24 24 24 17 4 6 4 2 6 4 3 5 8 2 3 5 5 2 6 1 4 3 7 5 8 7 5 7 10 5 7 6 11 4 10 11 17 17 15 13 12 12
21 21 24 24 24 23 3 4 2 1 9 8 7 6 5 4 4 4 5 5 4 4 2 6 7 6 5 5 6 8 8 9 7 8 5 6 6 5 13 20 23 19 16 15 14
21 23 24 26 25 4 3 4 5 2 1 9 5 5 6 9 7 7 8 4 4 2 2 6 8 8 3 7 5 5 5 5 5 5 4 5 5 6 9 4 11 15 16 15 15
20 22 21 28 2 5 4 5 7 3 5 7 4 7 4 6 4 7 6 7 0 9 6 6 5 2 3 5 4 5 6 3 14 6 4 7 5 7 8 10 13 14 13 13 10
22 19 15 8 6 2 5 9 8 5 4 1 1 1 2 9 2 4 4 6 8 6 6 9 2 4 5 5 3 10 5 3 5 4 4 2 2 7 8 10 14 16 17 17 11
19 18 12 1 2 8 9 9 4 6 2 4 2 4 4 1 3 2 3 5 4 4 2 8 2 3 7 5 5 3 3 6 5 3 4 2 4 8 6 15 11 14 17 18 13
18 12 3 3 4 6 6 5 6 5 4 6 2 3 3 1 3 6 5 5 7 4 4 7 7 4 4 4 4 7 8 5 6 7 5 1 3 10 4 8 13 20 21 19 15
21 12 6 6 4 6 3 6 6 1 4 4 4 2 3 2 5 4 5 3 3 6 3 3 9 2 3 9 7 4 8 7 3 1 5 3 4 7 6 9 9 13 21 18 16
18 1 2 5 10 2 6 5 4 2 2 4 5 9 6 3 4 3 3 3 7 10 8 5 6 5 7 2 8 4 3 4 8 3 3 3 6 9 5 11 5 7 12 17 18
2 3 3 5 8 4 6 3 3 6 2 4 4 2 5 6 6 4 2 3 6 11 4 4 2 3 7 5 2 3 5 4 4 3 1 5 4 5 6 2 6 5 10 14 17
2 5 4 2 1 6 3 5 5 6 3 5 3 3 1 3 3 6 5 6 13 7 8 7 6 9 4 3 0 7 5 6 5 4 7 2 8 8 10 9 3 7 7 11 16
3 5 3 2 5 2 1 4 7 4 8 5 4 1 3 5 7 5 4 3 14 5 6 4 6 2 4 2 6 6 4 4 6 5 1 4 9 4 7 8 2 2 4 8 11
4 2 3 4 4 5 7 6 1 8 8 7 8 4 6 5 5 4 5 7 9 11 3 2 3 4 8 8 6 8 5 2 3 3 7 7 8 4 7 8 5 8 4 6 10
3 4 6 5 0 3 4 7 8 5 9 4 4 6 7 8 7 5 9 4 7 6 2 7 3 6 6 3 1 2 4 5 4 5 3 7 4 5 10 9 7 2 3 5 8
5 1 2 4 6 6 2 6 7 8 6 9 7 7 3 6 5 5 5 8 6 7 9 6 4 3 2 1 3 1 5 7 6 2 5 6 5 7 12 13 8 3 6 7 5
4 4 5 2 4 5 9 6 7 7 5 7 4 5 4 3 4 4 2 2 5 7 6 5 1 3 3 4 5 6 2 6 4 5 2 8 3 9 10 13 11 9 10 10 8
3 2 3 5 6 3 3 3 5 5 3 4 4 2 4 3 7 6 6 5 6 4 1 2 3 3 2 3 2 5 4 3 4 2 1 5 5 9 6 11 13 17 14 10 8
Wind_Direction
341 339 335 335 335 336 337 340 340 334 334 333 328 321 320 317 314 173 240 200 177 168 130 131 122 184 121 78 182 161 61 3 2 26 312 285 155 155 128 137 178 181 138 138 136
340 337 336 335 334 337 338 337 334 329 329 329 325 321 325 330 307 230 254 145 148 160 137 149 124 98 42 339 1 95 122 191 71 353 332 215 157 124 131 155 133 107 108 134 142
340 338 337 336 335 334 334 331 324 324 324 325 323 319 323 322 285 236 214 153 157 157 76 80 98 64 60 335 4 250 161 99 60 77 321 331 149 177 151 178 165 148 144 151 154
340 340 339 335 332 329 324 321 319 319 319 322 320 314 315 209 153 227 168 165 155 130 88 116 49 101 104 243 354 346 310 61 71 353 256 222 345 253 185 200 162 157 153 152 165
341 341 334 328 325 321 318 315 313 314 315 317 316 317 312 348 252 169 160 157 155 147 153 144 146 153 192 202 134 267 248 202 179 189 235 242 232 260 215 148 136 148 154 162 174
332 326 324 321 319 318 315 311 308 310 311 309 307 312 298 266 101 150 152 156 178 182 205 176 194 198 237 187 192 201 195 196 201 201 215 199 219 198 198 153 148 152 163 170 179
327 324 322 321 320 318 314 311 309 310 304 293 280 242 98 226 122 147 148 188 186 190 189 228 236 238 204 153 219 234 145 156 255 176 154 131 332 141 157 156 166 160 164 177 187
325 325 323 322 321 321 319 314 309 307 290 253 218 196 243 248 134 150 195 191 213 204 223 230 196 234 200 266 93 152 58 170 213 163 133 119 233 256 162 162 173 182 170 172 195
325 324 322 323 324 324 319 312 310 312 133 151 121 146 271 175 154 215 172 208 163 199 240 281 119 210 42 74 358 25 256 252 251 195 125 125 173 230 200 172 177 186 190 182 177
324 321 323 326 326 325 320 304 278 50 159 204 264 20 280 35 244 184 203 210 176 185 282 225 56 83 67 73 249 276 282 265 231 206 139 164 238 180 203 179 183 187 196 199 204
322 321 326 326 323 324 335 2 17 356 151 217 191 246 289 297 269 212 165 133 137 48 203 340 14 252 246 190 203 242 256 253 261 181 140 193 210 184 199 188 184 191 200 206 210
322 323 327 324 319 319 284 57 110 262 304 242 229 260 257 77 328 313 112 134 132 188 52 359 258 254 286 267 229 223 243 247 290 150 161 147 219 204 196 196 188 186 197 207 214
320 327 328 322 315 314 303 246 333 333 187 296 200 197 201 139 201 246 135 149 148 168 170 183 244 326 317 310 310 281 188 252 176 135 355 60 311 194 192 207 193 203 199 205 201
322 328 331 326 354 328 280 295 303 223 58 279 269 267 138 141 258 213 172 135 161 194 183 237 288 270 330 294 155 310 227 287 131 111 208 142 264 237 167 185 197 191 197 205 186
325 326 328 329 300 286 303 322 313 67 64 226 172 83 136 143 238 345 183 54 182 190 110 249 284 343 325 255 104 248 318 45 139 122 117 220 42 264 136 179 202 197 199 207 188
322 323 329 152 251 248 310 310 45 43 38 359 107 139 106 278 309 38 122 77 153 142 326 243 284 232 223 251 216 271 297 49 68 98 37 297 133 284 180 207 196 195 203 202 187
318 305 257 277 231 323 305 37 43 93 313 324 315 72 73 292 293 163 163 173 173 117 282 318 267 249 184 319 6 72 46 350 0 13 213 306 19 245 268 244 200 184 193 197 184
320 305 215 219 285 332 43 50 69 226 294 314 29 92 137 196 242 179 138 195 220 84 105 171 337 201 145 188 210 153 148 149 220 208 270 50 233 279 297 270 199 190 188 179 180
318 120 218 255 204 319 69 59 213 238 247 334 18 54 339 321 210 194 120 291 227 163 180 145 272 297 222 206 136 181 167 182 104 12 37 274 306 315 338 27 61 156 153 176 184
335 345 287 140 163 72 73 261 264 231 11 61 89 84 17 328 31 93 165 217 307 196 155 174 339 295 296 60 25 118 160 60 14 154 229 300 283 241 322 5 100 134 176 183 186
35 48 310 200 117 45 92 250 286 266 60 59 58 47 325 19 7 22 358 319 351 308 150 149 117 282 11 32 111 9 7 56 123 125 158 190 266 217 214 235 130 152 176 185 189
72 49 313 330 33 56 262 215 284 315 26 46 87 72 30 30 38 57 356 281 330 306 88 352 125 185 201 308 352 112 39 122 117 246 282 154 266 270 213 272 294 249 139 173 199
73 254 338 62 48 329 306 305 345 32 9 32 0 13 35 44 101 48 311 300 358 25 26 150 356 27 347 356 10 56 337 315 108 80 195 142 260 296 275 304 285 227 294 183 176
72 35 338 47 116 322 334 345 1 2 57 36 29 61 49 26 3 15 356 325 334 3 355 105 79 140 158 195 194 52 355 10 95 77 294 228 242 252 250 247 266 340 194 195 183
26 31 184 343 334 351 33 353 7 7 18 20 28 38 69 35 15 13 346 321 346 4 12 76 74 95 149 162 116 124 71 34 69 322 173 295 313 355 327 317 299 130 120 100 131
74 39 354 312 307 3 14 342 12 334 32 349 40 330 34 94 170 259 104 340 285 329 13 5 118 46 21 18 132 76 51 83 76 359 327 321 183 360 317 28 13 20 63 66 60
332 358 95 313 345 52 327 323 0 342 316 44 313 14 3 346 294 243 200 206 220 258 359 356 102 66 245 321 175 30 315 107 131 53 247 30 275 319 13 33 3 20 20 31 57